When you browse on this site, cookies collect data to enhance your experience and personalize the content and advertising you see.
Visit our Privacy Policy to learn more. By continuing to use the site, you agree to this use of cookies and data.
  • In Hungary
  • List of Countries
  • For 7 days
  • Water Temperature
  • Satellite Maps
  • Weather Map
  • News
  • Weather Widgets
  • user-avatar
    Login

    Hourly Weather Jeziorna

    Today, 27 May, Monday

    Time Temperature Precipitation Wind Pressure Humidity
    00:00 +14°C° 0 mm 3 mps 752 mmHg 79%
    01:00 +14°C° 0 mm 3 mps 751 mmHg 80%
    02:00 +14°C° 0 mm 3 mps 751 mmHg 81%
    03:00 +13°C° 0 mm 3 mps 751 mmHg 82%
    04:00 +13°C° 0 mm 3 mps 751 mmHg 83%
    05:00 +14°C° 0 mm 3 mps 751 mmHg 78%
    06:00 +17°C° 0 mm 4 mps 751 mmHg 74%
    07:00 +18°C° 0 mm 4 mps 750 mmHg 69%
    08:00 +20°C° 0 mm 4 mps 750 mmHg 64%
    09:00 +21°C° 0 mm 5 mps 750 mmHg 59%
    10:00 +23°C° 0 mm 5 mps 750 mmHg 54%
    11:00 +25°C° 0 mm 5 mps 750 mmHg 51%
    12:00 +25°C° 0 mm 5 mps 750 mmHg 49%
    13:00 +26°C° 0 mm 4 mps 750 mmHg 46%
    14:00 +26°C° 0 mm 4 mps 749 mmHg 47%
    15:00 +26°C° 0 mm 3 mps 749 mmHg 47%
    16:00 +26°C° 0 mm 3 mps 749 mmHg 48%
    17:00 +24°C° 0 mm 3 mps 749 mmHg 56%
    18:00 +23°C° 0 mm 2 mps 749 mmHg 64%
    19:00 +20°C° 0 mm 2 mps 748 mmHg 73%
    20:00 +19°C° 0 mm 2 mps 748 mmHg 77%
    21:00 +18°C° 0 mm 2 mps 748 mmHg 81%
    22:00 +17°C° 0 mm 2 mps 748 mmHg 85%
    23:00 +17°C° 0.1 mm 2 mps 748 mmHg 87%

    Tomorrow, 28 May, Tuesday

    Time Temperature Precipitation Wind Pressure Humidity
    00:00 +17°C° 0.1 mm 2 mps 748 mmHg 88%
    01:00 +18°C° 0.1 mm 1 mps 747 mmHg 89%
    02:00 +16°C° 1.3 mm 2 mps 747 mmHg 92%
    03:00 +16°C° 1.3 mm 2 mps 747 mmHg 94%
    04:00 +14°C° 1.3 mm 3 mps 747 mmHg 96%
    05:00 +14°C° 1.9 mm 3 mps 747 mmHg 95%
    06:00 +14°C° 1.9 mm 4 mps 747 mmHg 95%
    07:00 +14°C° 1.9 mm 4 mps 747 mmHg 94%
    08:00 +13°C° 1 mm 4 mps 747 mmHg 93%
    09:00 +13°C° 1 mm 5 mps 748 mmHg 91%
    10:00 +13°C° 1 mm 5 mps 748 mmHg 90%
    11:00 +13°C° 0.5 mm 4 mps 748 mmHg 88%
    12:00 +13°C° 0.5 mm 4 mps 748 mmHg 85%
    13:00 +13°C° 0.5 mm 3 mps 749 mmHg 83%
    14:00 +14°C° 0.5 mm 3 mps 749 mmHg 82%
    15:00 +15°C° 0.5 mm 2 mps 749 mmHg 82%
    16:00 +15°C° 0.5 mm 1 mps 749 mmHg 81%
    17:00 +14°C° 0.2 mm 1 mps 750 mmHg 82%
    18:00 +14°C° 0.2 mm 2 mps 750 mmHg 83%
    19:00 +14°C° 0.2 mm 2 mps 750 mmHg 84%
    20:00 +13°C° 0 mm 2 mps 751 mmHg 85%
    21:00 +12°C° 0 mm 2 mps 752 mmHg 85%
    22:00 +10°C° 0 mm 2 mps 752 mmHg 86%
    23:00 +9°C° 0 mm 2 mps 752 mmHg 86%

    Day after tomorrow, 29 May, Wednesday

    Time Temperature Precipitation Wind Pressure Humidity
    00:00 +8°C° 0 mm 2 mps 753 mmHg 86%
    01:00 +8°C° 0 mm 2 mps 753 mmHg 87%
    02:00 +8°C° 0 mm 2 mps 754 mmHg 87%
    03:00 +8°C° 0 mm 2 mps 754 mmHg 87%
    04:00 +7°C° 0 mm 2 mps 755 mmHg 87%
    05:00 +8°C° 0 mm 2 mps 755 mmHg 82%
    06:00 +10°C° 0 mm 2 mps 756 mmHg 77%
    07:00 +12°C° 0 mm 2 mps 756 mmHg 73%
    08:00 +13°C° 0 mm 2 mps 756 mmHg 66%
    09:00 +14°C° 0 mm 2 mps 757 mmHg 60%
    10:00 +15°C° 0 mm 2 mps 757 mmHg 54%
    11:00 +16°C° 0 mm 2 mps 757 mmHg 51%
    12:00 +17°C° 0 mm 2 mps 757 mmHg 48%
    13:00 +18°C° 0 mm 2 mps 757 mmHg 46%
    14:00 +18°C° 0 mm 2 mps 757 mmHg 45%
    15:00 +18°C° 0 mm 2 mps 757 mmHg 45%
    16:00 +19°C° 0 mm 2 mps 757 mmHg 45%
    17:00 +18°C° 0 mm 2 mps 757 mmHg 51%
    18:00 +17°C° 0 mm 2 mps 757 mmHg 57%
    19:00 +16°C° 0 mm 1 mps 757 mmHg 64%
    20:00 +14°C° 0 mm 1 mps 757 mmHg 67%
    21:00 +13°C° 0 mm 1 mps 758 mmHg 70%
    22:00 +12°C° 0 mm 1 mps 758 mmHg 73%
    23:00 +11°C° 0 mm 1 mps 758 mmHg 76%

    30 May, Thursday

    Time Temperature Precipitation Wind Pressure Humidity
    00:00 +10°C° 0 mm 1 mps 758 mmHg 80%
    01:00 +10°C° 0 mm 1 mps 758 mmHg 83%
    02:00 +9°C° 0 mm 1 mps 758 mmHg 84%
    03:00 +9°C° 0 mm 1 mps 758 mmHg 86%
    04:00 +8°C° 0 mm 1 mps 758 mmHg 87%
    05:00 +10°C° 0 mm 1 mps 758 mmHg 81%
    06:00 +12°C° 0 mm 2 mps 758 mmHg 75%
    07:00 +14°C° 0 mm 2 mps 758 mmHg 69%
    08:00 +16°C° 0 mm 2 mps 758 mmHg 63%
    09:00 +18°C° 0 mm 2 mps 758 mmHg 57%
    10:00 +19°C° 0 mm 3 mps 758 mmHg 51%
    11:00 +20°C° 0 mm 3 mps 757 mmHg 49%
    12:00 +21°C° 0 mm 3 mps 757 mmHg 47%
    13:00 +22°C° 0 mm 3 mps 757 mmHg 46%
    14:00 +21°C° 0 mm 3 mps 757 mmHg 49%
    15:00 +21°C° 0 mm 3 mps 757 mmHg 53%
    16:00 +20°C° 0 mm 2 mps 756 mmHg 56%
    17:00 +19°C° 0.1 mm 2 mps 756 mmHg 64%
    18:00 +18°C° 0.1 mm 2 mps 756 mmHg 71%
    19:00 +17°C° 0.1 mm 2 mps 756 mmHg 79%
    20:00 +16°C° 0.1 mm 2 mps 756 mmHg 82%
    21:00 +16°C° 0.1 mm 3 mps 756 mmHg 84%
    22:00 +14°C° 0.1 mm 3 mps 756 mmHg 87%
    23:00 +13°C° 0 mm 3 mps 756 mmHg 90%

    31 May, Friday

    Time Temperature Precipitation Wind Pressure Humidity
    00:00 +13°C° 0 mm 3 mps 755 mmHg 92%
    01:00 +13°C° 0 mm 3 mps 755 mmHg 94%
    02:00 +12°C° 0 mm 3 mps 755 mmHg 94%
    03:00 +12°C° 0 mm 3 mps 754 mmHg 94%
    04:00 +12°C° 0 mm 3 mps 753 mmHg 94%
    05:00 +13°C° 0.1 mm 3 mps 753 mmHg 93%
    06:00 +14°C° 0.1 mm 4 mps 753 mmHg 91%
    07:00 +15°C° 0.1 mm 4 mps 753 mmHg 89%
    08:00 +14°C° 0.7 mm 6 mps 753 mmHg 89%
    09:00 +12°C° 0.7 mm 8 mps 754 mmHg 89%
    10:00 +12°C° 0.7 mm 9 mps 755 mmHg 88%
    11:00 +10°C° 0.8 mm 8 mps 756 mmHg 86%
    12:00 +9°C° 0.8 mm 8 mps 757 mmHg 83%
    13:00 +8°C° 0.8 mm 7 mps 758 mmHg 81%
    14:00 +10°C° 0 mm 7 mps 759 mmHg 68%
    15:00 +12°C° 0 mm 7 mps 760 mmHg 56%
    16:00 +14°C° 0 mm 7 mps 761 mmHg 43%
    17:00 +13°C° 0 mm 6 mps 761 mmHg 49%
    18:00 +13°C° 0 mm 5 mps 761 mmHg 54%
    19:00 +12°C° 0 mm 4 mps 762 mmHg 59%
    20:00 +11°C° 0 mm 4 mps 762 mmHg 63%
    21:00 +9°C° 0 mm 3 mps 763 mmHg 67%
    22:00 +8°C° 0 mm 3 mps 763 mmHg 70%
    23:00 +8°C° 0 mm 3 mps 764 mmHg 74%

    1 June, Saturday

    Time Temperature Precipitation Wind Pressure Humidity
    00:00 +7°C° 0 mm 3 mps 764 mmHg 77%
    01:00 +7°C° 0 mm 3 mps 764 mmHg 80%
    02:00 +5°C° 0 mm 3 mps 765 mmHg 82%
    03:00 +5°C° 0 mm 3 mps 765 mmHg 84%
    04:00 +5°C° 0 mm 3 mps 765 mmHg 85%
    05:00 +7°C° 0 mm 3 mps 765 mmHg 80%
    06:00 +7°C° 0 mm 4 mps 766 mmHg 75%
    07:00 +10°C° 0 mm 4 mps 766 mmHg 70%
    08:00 +10°C° 0 mm 4 mps 766 mmHg 67%
    09:00 +10°C° 0 mm 4 mps 766 mmHg 64%
    10:00 +11°C° 0 mm 4 mps 766 mmHg 60%
    11:00 +11°C° 0 mm 3 mps 766 mmHg 58%
    12:00 +12°C° 0 mm 3 mps 766 mmHg 56%
    13:00 +12°C° 0 mm 3 mps 766 mmHg 54%
    14:00 +13°C° 0 mm 3 mps 766 mmHg 52%
    15:00 +14°C° 0 mm 3 mps 766 mmHg 49%
    16:00 +16°C° 0 mm 3 mps 766 mmHg 46%
    17:00 +15°C° 0 mm 2 mps 766 mmHg 52%
    18:00 +15°C° 0 mm 2 mps 766 mmHg 58%
    19:00 +14°C° 0 mm 1 mps 766 mmHg 63%
    20:00 +12°C° 0 mm 1 mps 766 mmHg 68%
    21:00 +11°C° 0 mm 1 mps 766 mmHg 73%
    22:00 +9°C° 0 mm 1 mps 766 mmHg 77%
    23:00 +9°C° 0 mm 1 mps 766 mmHg 79%
    Show more